Time,TemperatureF,DewpointF,PressureIn,WindDirection,WindDirectionDegrees,WindSpeedMPH,WindSpeedGustMPH,Humidity,HourlyPrecipIn,Conditions,Clouds,dailyrainin,SoftwareType,DateUTC
2013-08-16 00:01:00,61.3,59.5,29.81,WNW,292,2.0,11.0,94,0.00,,,0.27,meteohub,2013-08-15 23:01:00,
2013-08-16 00:06:00,61.0,59.2,29.81,WNW,292,3.0,10.0,94,0.00,,,0.00,meteohub,2013-08-15 23:06:00,
2013-08-16 00:11:00,60.8,59.0,29.81,West,270,3.0,9.0,94,0.00,,,0.00,meteohub,2013-08-15 23:11:00,
2013-08-16 00:16:00,60.6,58.8,29.81,WSW,248,4.0,6.0,94,0.00,,,0.00,meteohub,2013-08-15 23:16:00,
2013-08-16 00:21:00,60.4,58.6,29.81,West,270,4.0,4.0,94,0.01,,,0.01,meteohub,2013-08-15 23:21:00,
2013-08-16 00:26:00,60.4,58.6,29.81,WSW,248,2.0,4.0,94,0.01,,,0.01,meteohub,2013-08-15 23:26:00,
2013-08-16 00:32:00,60.4,58.6,29.81,WSW,248,4.0,4.0,94,0.01,,,0.01,meteohub,2013-08-15 23:32:00,
2013-08-16 00:37:00,60.4,58.6,29.81,WNW,292,3.0,4.0,94,0.01,,,0.01,meteohub,2013-08-15 23:37:00,
2013-08-16 00:42:00,60.4,58.6,29.78,WNW,292,4.0,4.0,94,0.01,,,0.01,meteohub,2013-08-15 23:42:00,
2013-08-16 00:47:00,60.3,58.5,29.78,WNW,292,2.0,5.0,94,0.01,,,0.01,meteohub,2013-08-15 23:47:00,
2013-08-16 00:53:00,60.1,58.3,29.78,WSW,248,2.0,5.0,94,0.01,,,0.01,meteohub,2013-08-15 23:53:00,
2013-08-16 00:58:00,60.3,58.5,29.78,SW,225,2.0,5.0,94,0.01,,,0.01,meteohub,2013-08-15 23:58:00,
2013-08-16 01:03:00,60.3,58.5,29.78,WSW,248,3.0,4.0,94,0.01,,,0.01,meteohub,2013-08-16 00:03:00,
2013-08-16 01:09:00,60.3,58.5,29.78,WSW,248,0.0,3.0,94,0.01,,,0.01,meteohub,2013-08-16 00:09:00,
2013-08-16 01:14:00,60.3,58.8,29.78,SW,225,1.0,3.0,95,0.01,,,0.01,meteohub,2013-08-16 00:14:00,
2013-08-16 01:19:00,60.3,58.8,29.78,South,180,2.0,3.0,95,0.01,,,0.01,meteohub,2013-08-16 00:19:00,
2013-08-16 01:24:00,60.3,58.8,29.78,WSW,248,1.0,4.0,95,0.00,,,0.01,meteohub,2013-08-16 00:24:00,
2013-08-16 01:29:00,60.1,58.3,29.78,WNW,292,4.0,4.0,94,0.00,,,0.01,meteohub,2013-08-16 00:29:00,
2013-08-16 01:35:00,59.9,58.1,29.78,West,270,4.0,6.0,94,0.00,,,0.01,meteohub,2013-08-16 00:35:00,
2013-08-16 01:40:00,59.7,57.9,29.78,West,270,3.0,6.0,94,0.00,,,0.01,meteohub,2013-08-16 00:40:00,
2013-08-16 01:45:00,59.7,57.9,29.81,WSW,248,1.0,5.0,94,0.00,,,0.01,meteohub,2013-08-16 00:45:00,
2013-08-16 01:50:00,59.5,57.7,29.81,WSW,248,2.0,5.0,94,0.00,,,0.01,meteohub,2013-08-16 00:50:00,
2013-08-16 01:55:00,59.4,57.6,29.81,West,270,3.0,5.0,94,0.00,,,0.01,meteohub,2013-08-16 00:55:00,
2013-08-16 02:00:00,59.4,57.6,29.78,West,270,4.0,6.0,94,0.00,,,0.01,meteohub,2013-08-16 01:00:00,
2013-08-16 02:06:00,59.4,57.6,29.78,WNW,292,3.0,7.0,94,0.00,,,0.01,meteohub,2013-08-16 01:06:00,
2013-08-16 02:11:00,59.4,57.6,29.78,West,270,6.0,7.0,94,0.00,,,0.01,meteohub,2013-08-16 01:11:00,
2013-08-16 02:16:00,59.5,58.1,29.81,West,270,6.0,7.0,95,0.00,,,0.01,meteohub,2013-08-16 01:16:00,
2013-08-16 02:21:00,59.5,58.1,29.81,WSW,248,5.0,9.0,95,0.00,,,0.01,meteohub,2013-08-16 01:21:00,
2013-08-16 02:27:00,59.7,58.6,29.81,WSW,248,6.0,9.0,96,0.00,,,0.01,meteohub,2013-08-16 01:27:00,
2013-08-16 02:33:00,59.7,58.6,29.81,West,270,2.0,9.0,96,0.00,,,0.01,meteohub,2013-08-16 01:33:00,
2013-08-16 02:38:00,59.4,58.3,29.81,WNW,292,5.0,8.0,96,0.00,,,0.01,meteohub,2013-08-16 01:38:00,
2013-08-16 02:43:00,59.2,58.1,29.81,West,270,4.0,7.0,96,0.00,,,0.01,meteohub,2013-08-16 01:43:00,
2013-08-16 02:48:00,58.8,57.7,29.81,West,270,6.0,7.0,96,0.00,,,0.01,meteohub,2013-08-16 01:48:00,
2013-08-16 02:53:00,58.5,57.4,29.81,West,270,8.0,8.0,96,0.00,,,0.01,meteohub,2013-08-16 01:53:00,
2013-08-16 02:59:00,58.3,57.2,29.81,West,270,5.0,8.0,96,0.00,,,0.01,meteohub,2013-08-16 01:59:00,
2013-08-16 03:04:00,58.1,57.0,29.81,West,270,7.0,8.0,96,0.00,,,0.01,meteohub,2013-08-16 02:04:00,
2013-08-16 03:09:00,57.6,56.5,29.81,WSW,248,9.0,9.0,96,0.00,,,0.01,meteohub,2013-08-16 02:09:00,
2013-08-16 03:14:00,57.2,55.8,29.81,West,270,6.0,11.0,95,0.00,,,0.01,meteohub,2013-08-16 02:14:00,
2013-08-16 03:19:00,56.7,55.2,29.81,WNW,292,6.0,12.0,95,0.00,,,0.01,meteohub,2013-08-16 02:19:00,
2013-08-16 03:24:00,56.3,54.9,29.81,West,270,6.0,12.0,95,0.00,,,0.01,meteohub,2013-08-16 02:24:00,
2013-08-16 03:29:00,55.9,54.3,29.81,West,270,4.0,12.0,94,0.00,,,0.01,meteohub,2013-08-16 02:29:00,
2013-08-16 03:34:00,55.6,54.0,29.81,West,270,4.0,10.0,94,0.00,,,0.01,meteohub,2013-08-16 02:34:00,
2013-08-16 03:39:00,55.2,53.6,29.81,WNW,292,8.0,8.0,94,0.00,,,0.01,meteohub,2013-08-16 02:39:00,
2013-08-16 03:45:00,55.0,53.4,29.81,West,270,8.0,9.0,94,0.00,,,0.01,meteohub,2013-08-16 02:45:00,
2013-08-16 03:50:00,54.7,53.1,29.81,WSW,248,6.0,10.0,94,0.00,,,0.01,meteohub,2013-08-16 02:50:00,
2013-08-16 03:55:00,54.9,53.2,29.81,WSW,248,4.0,10.0,94,0.00,,,0.01,meteohub,2013-08-16 02:55:00,
2013-08-16 04:00:00,54.7,53.1,29.81,West,270,2.0,9.0,94,0.00,,,0.01,meteohub,2013-08-16 03:00:00,
2013-08-16 04:05:00,54.7,52.7,29.81,West,270,3.0,8.0,93,0.00,,,0.01,meteohub,2013-08-16 03:05:00,
2013-08-16 04:09:00,54.5,52.5,29.81,WSW,248,6.0,8.0,93,0.00,,,0.01,meteohub,2013-08-16 03:09:00,
2013-08-16 04:14:00,54.3,52.3,29.84,West,270,5.0,7.0,93,0.00,,,0.01,meteohub,2013-08-16 03:14:00,
2013-08-16 04:19:00,54.1,52.2,29.84,West,270,8.0,9.0,93,0.00,,,0.01,meteohub,2013-08-16 03:19:00,
2013-08-16 04:24:00,54.1,52.2,29.84,West,270,6.0,10.0,93,0.00,,,0.01,meteohub,2013-08-16 03:24:00,
2013-08-16 04:29:00,54.0,52.0,29.84,WNW,292,5.0,13.0,93,0.00,,,0.01,meteohub,2013-08-16 03:29:00,
2013-08-16 04:34:00,53.6,51.6,29.84,WNW,292,4.0,13.0,93,0.00,,,0.01,meteohub,2013-08-16 03:34:00,
2013-08-16 04:39:00,53.4,51.4,29.84,WNW,292,3.0,13.0,93,0.00,,,0.01,meteohub,2013-08-16 03:39:00,
2013-08-16 04:44:00,53.1,51.1,29.84,WNW,292,3.0,10.0,93,0.00,,,0.01,meteohub,2013-08-16 03:44:00,
2013-08-16 04:49:00,52.7,50.7,29.84,NW,315,3.0,7.0,93,0.00,,,0.01,meteohub,2013-08-16 03:49:00,
2013-08-16 04:54:00,52.5,50.5,29.84,NNE,22,0.0,6.0,93,0.00,,,0.01,meteohub,2013-08-16 03:54:00,
2013-08-16 04:59:00,52.3,50.4,29.84,NNW,338,0.0,4.0,93,0.00,,,0.01,meteohub,2013-08-16 03:59:00,
2013-08-16 05:01:00,52.3,50.4,29.84,NNW,338,4.0,4.0,93,0.00,,,0.01,meteohub,2013-08-16 04:01:00,
2013-08-16 05:02:00,52.3,50.4,29.84,NW,315,4.0,4.0,93,0.00,,,0.01,meteohub,2013-08-16 04:02:00,
2013-08-16 05:03:00,52.3,50.4,29.84,NW,315,3.0,4.0,93,0.00,,,0.01,meteohub,2013-08-16 04:03:00,
2013-08-16 05:04:00,52.3,50.4,29.84,WNW,292,2.0,4.0,93,0.00,,,0.01,meteohub,2013-08-16 04:04:00,
2013-08-16 05:10:00,52.0,50.0,29.84,NW,315,2.0,5.0,93,0.00,,,0.01,meteohub,2013-08-16 04:10:00,
2013-08-16 05:15:00,51.8,49.6,29.84,West,270,0.0,5.0,92,0.00,,,0.01,meteohub,2013-08-16 04:15:00,
2013-08-16 05:20:00,51.6,49.6,29.84,WNW,292,3.0,4.0,93,0.00,,,0.01,meteohub,2013-08-16 04:20:00,
2013-08-16 05:25:00,51.3,49.1,29.84,West,270,2.0,4.0,92,0.00,,,0.01,meteohub,2013-08-16 04:25:00,
2013-08-16 05:30:00,51.1,49.1,29.84,West,270,4.0,5.0,93,0.00,,,0.01,meteohub,2013-08-16 04:30:00,
2013-08-16 05:35:00,51.1,49.1,29.84,West,270,5.0,6.0,93,0.00,,,0.01,meteohub,2013-08-16 04:35:00,
2013-08-16 05:40:00,50.9,48.9,29.84,WNW,292,2.0,6.0,93,0.00,,,0.01,meteohub,2013-08-16 04:40:00,
2013-08-16 05:45:00,50.5,48.4,29.84,West,270,2.0,6.0,92,0.00,,,0.01,meteohub,2013-08-16 04:45:00,
2013-08-16 05:50:00,50.2,48.0,29.84,West,270,4.0,4.0,92,0.00,,,0.01,meteohub,2013-08-16 04:50:00,
2013-08-16 05:55:00,50.0,47.8,29.84,WNW,292,4.0,4.0,92,0.00,,,0.01,meteohub,2013-08-16 04:55:00,
2013-08-16 06:00:00,50.2,48.2,29.84,West,270,4.0,4.0,93,0.00,,,0.01,meteohub,2013-08-16 05:00:00,
2013-08-16 06:05:00,50.4,48.4,29.84,West,270,4.0,4.0,93,0.00,,,0.01,meteohub,2013-08-16 05:05:00,
2013-08-16 06:10:00,50.7,48.7,29.84,West,270,5.0,6.0,93,0.00,,,0.01,meteohub,2013-08-16 05:10:00,
2013-08-16 06:15:00,50.9,48.9,29.84,West,270,4.0,6.0,93,0.00,,,0.01,meteohub,2013-08-16 05:15:00,
2013-08-16 06:21:00,51.3,49.6,29.84,West,270,4.0,6.0,94,0.00,,,0.01,meteohub,2013-08-16 05:21:00,
2013-08-16 06:26:00,51.4,49.8,29.84,WSW,248,3.0,6.0,94,0.00,,,0.01,meteohub,2013-08-16 05:26:00,
2013-08-16 06:31:00,51.6,50.0,29.84,West,270,3.0,6.0,94,0.00,,,0.01,meteohub,2013-08-16 05:31:00,
2013-08-16 06:36:00,51.6,50.0,29.84,WNW,292,6.0,6.0,94,0.00,,,0.01,meteohub,2013-08-16 05:36:00,
2013-08-16 06:41:00,51.6,50.2,29.84,West,270,4.0,6.0,95,0.00,,,0.01,meteohub,2013-08-16 05:41:00,
2013-08-16 06:46:00,51.6,50.2,29.87,West,270,6.0,6.0,95,0.00,,,0.01,meteohub,2013-08-16 05:46:00,
2013-08-16 06:51:00,52.2,50.7,29.87,WSW,248,6.0,8.0,95,0.00,,,0.01,meteohub,2013-08-16 05:51:00,
2013-08-16 06:56:00,52.3,50.9,29.87,West,270,6.0,8.0,95,0.00,,,0.01,meteohub,2013-08-16 05:56:00,
2013-08-16 07:02:00,52.5,51.4,29.84,West,270,4.0,8.0,96,0.00,,,0.01,meteohub,2013-08-16 06:02:00,
2013-08-16 07:07:00,52.7,51.6,29.84,West,270,4.0,6.0,96,0.00,,,0.01,meteohub,2013-08-16 06:07:00,
2013-08-16 07:12:00,52.9,51.8,29.84,West,270,4.0,6.0,96,0.00,,,0.01,meteohub,2013-08-16 06:12:00,
2013-08-16 07:17:00,52.9,51.8,29.84,WNW,292,4.0,4.0,96,0.00,,,0.01,meteohub,2013-08-16 06:17:00,
2013-08-16 07:22:00,53.2,52.2,29.84,WSW,248,4.0,4.0,96,0.00,,,0.01,meteohub,2013-08-16 06:22:00,
2013-08-16 07:27:00,53.6,52.5,29.84,WNW,292,4.0,5.0,96,0.00,,,0.01,meteohub,2013-08-16 06:27:00,
2013-08-16 07:32:00,53.8,52.9,29.84,West,270,5.0,6.0,97,0.00,,,0.01,meteohub,2013-08-16 06:32:00,
2013-08-16 07:37:00,54.0,53.1,29.84,WSW,248,5.0,6.0,97,0.00,,,0.01,meteohub,2013-08-16 06:37:00,
2013-08-16 07:42:00,54.1,53.2,29.84,West,270,6.0,6.0,97,0.00,,,0.01,meteohub,2013-08-16 06:42:00,
2013-08-16 07:47:00,54.3,53.4,29.84,West,270,4.0,6.0,97,0.00,,,0.01,meteohub,2013-08-16 06:47:00,
2013-08-16 07:52:00,54.7,53.8,29.84,West,270,7.0,8.0,97,0.00,,,0.01,meteohub,2013-08-16 06:52:00,
2013-08-16 07:57:00,54.9,54.0,29.84,WSW,248,7.0,8.0,97,0.00,,,0.01,meteohub,2013-08-16 06:57:00,
2013-08-16 08:02:00,55.2,54.3,29.84,West,270,6.0,8.0,97,0.00,,,0.01,meteohub,2013-08-16 07:02:00,
2013-08-16 08:07:00,55.6,54.7,29.84,West,270,7.0,8.0,97,0.00,,,0.01,meteohub,2013-08-16 07:07:00,
2013-08-16 08:12:00,55.9,55.0,29.84,WSW,248,8.0,9.0,97,0.00,,,0.01,meteohub,2013-08-16 07:12:00,
2013-08-16 08:17:00,56.1,55.2,29.87,WSW,248,8.0,10.0,97,0.00,,,0.01,meteohub,2013-08-16 07:17:00,
2013-08-16 08:22:00,56.3,55.2,29.87,WSW,248,9.0,10.0,96,0.00,,,0.01,meteohub,2013-08-16 07:22:00,
2013-08-16 08:27:00,56.3,55.2,29.87,West,270,6.0,10.0,96,0.00,,,0.01,meteohub,2013-08-16 07:27:00,
2013-08-16 08:32:00,56.3,54.9,29.87,West,270,8.0,11.0,95,0.00,,,0.01,meteohub,2013-08-16 07:32:00,
2013-08-16 08:37:00,56.8,55.4,29.87,WSW,248,6.0,11.0,95,0.00,,,0.01,meteohub,2013-08-16 07:37:00,
2013-08-16 08:43:00,57.2,55.6,29.84,SSW,202,8.0,11.0,94,0.00,,,0.01,meteohub,2013-08-16 07:43:00,
2013-08-16 08:48:00,57.6,55.6,29.84,WSW,248,11.0,11.0,93,0.00,,,0.01,meteohub,2013-08-16 07:48:00,
2013-08-16 08:53:00,57.6,55.2,29.84,WSW,248,6.0,13.0,92,0.00,,,0.01,meteohub,2013-08-16 07:53:00,
2013-08-16 08:58:00,57.7,55.2,29.87,WSW,248,6.0,13.0,91,0.00,,,0.01,meteohub,2013-08-16 07:58:00,
2013-08-16 09:03:00,58.1,54.9,29.87,WSW,248,11.0,13.0,89,0.00,,,0.01,meteohub,2013-08-16 08:03:00,
2013-08-16 09:08:00,58.3,54.7,29.87,WSW,248,11.0,13.0,88,0.00,,,0.01,meteohub,2013-08-16 08:08:00,
2013-08-16 09:13:00,58.8,54.3,29.87,West,270,10.0,16.0,85,0.00,,,0.01,meteohub,2013-08-16 08:13:00,
2013-08-16 09:18:00,59.0,53.8,29.87,SSW,202,7.0,16.0,83,0.00,,,0.01,meteohub,2013-08-16 08:18:00,
2013-08-16 09:23:00,59.2,53.4,29.87,West,270,10.0,16.0,81,0.00,,,0.01,meteohub,2013-08-16 08:23:00,
2013-08-16 09:28:00,59.5,53.4,29.87,SW,225,9.0,15.0,80,0.00,,,0.01,meteohub,2013-08-16 08:28:00,
2013-08-16 09:33:00,59.9,53.4,29.87,West,270,10.0,15.0,79,0.00,,,0.01,meteohub,2013-08-16 08:33:00,
2013-08-16 09:38:00,59.7,52.2,29.87,WSW,248,12.0,17.0,76,0.00,,,0.01,meteohub,2013-08-16 08:38:00,
2013-08-16 09:43:00,59.9,51.3,29.87,SSW,202,8.0,19.0,73,0.00,,,0.01,meteohub,2013-08-16 08:43:00,
2013-08-16 09:48:00,60.1,51.4,29.87,WSW,248,8.0,19.0,73,0.00,,,0.01,meteohub,2013-08-16 08:48:00,
2013-08-16 09:53:00,60.4,51.4,29.87,West,270,13.0,19.0,72,0.00,,,0.01,meteohub,2013-08-16 08:53:00,
2013-08-16 09:58:00,61.0,52.0,29.87,WSW,248,9.0,16.0,72,0.00,,,0.01,meteohub,2013-08-16 08:58:00,
2013-08-16 10:03:00,61.0,50.4,29.87,SW,225,10.0,15.0,68,0.00,,,0.01,meteohub,2013-08-16 09:03:00,
2013-08-16 10:08:00,61.2,49.6,29.87,WSW,248,9.0,14.0,66,0.00,,,0.01,meteohub,2013-08-16 09:08:00,
2013-08-16 10:13:00,61.7,50.7,29.87,SW,225,6.0,15.0,67,0.00,,,0.01,meteohub,2013-08-16 09:13:00,
2013-08-16 10:18:00,62.1,50.5,29.87,WSW,248,8.0,15.0,66,0.00,,,0.01,meteohub,2013-08-16 09:18:00,
2013-08-16 10:24:00,62.4,50.5,29.87,WSW,248,15.0,15.0,65,0.00,,,0.01,meteohub,2013-08-16 09:24:00,
2013-08-16 10:29:00,62.4,48.7,29.87,SW,225,13.0,15.0,61,0.00,,,0.01,meteohub,2013-08-16 09:29:00,
2013-08-16 10:34:00,62.2,46.8,29.87,SW,225,17.0,17.0,57,0.00,,,0.01,meteohub,2013-08-16 09:34:00,
2013-08-16 10:39:00,62.6,48.0,29.87,SW,225,10.0,17.0,59,0.00,,,0.01,meteohub,2013-08-16 09:39:00,
2013-08-16 10:44:00,62.6,47.1,29.87,WSW,248,6.0,19.0,57,0.00,,,0.01,meteohub,2013-08-16 09:44:00,
2013-08-16 10:49:00,63.0,47.1,29.87,SW,225,9.0,19.0,56,0.00,,,0.01,meteohub,2013-08-16 09:49:00,
2013-08-16 10:54:00,63.3,46.4,29.87,WSW,248,11.0,19.0,54,0.00,,,0.01,meteohub,2013-08-16 09:54:00,
2013-08-16 10:59:00,63.3,45.0,29.87,SW,225,7.0,17.0,51,0.00,,,0.01,meteohub,2013-08-16 09:59:00,
2013-08-16 11:04:00,63.5,44.1,29.87,SSW,202,10.0,18.0,49,0.00,,,0.01,meteohub,2013-08-16 10:04:00,
2013-08-16 11:09:00,63.9,42.6,29.87,WSW,248,15.0,18.0,46,0.00,,,0.01,meteohub,2013-08-16 10:09:00,
2013-08-16 11:14:00,64.4,42.6,29.87,WSW,248,14.0,18.0,45,0.00,,,0.01,meteohub,2013-08-16 10:14:00,
2013-08-16 11:19:00,64.6,42.3,29.87,NW,315,10.0,18.0,44,0.00,,,0.01,meteohub,2013-08-16 10:19:00,
2013-08-16 11:24:00,64.4,41.4,29.87,WSW,248,10.0,19.0,43,0.00,,,0.01,meteohub,2013-08-16 10:24:00,
2013-08-16 11:29:00,64.2,41.4,29.90,SW,225,8.0,20.0,43,0.00,,,0.01,meteohub,2013-08-16 10:29:00,
2013-08-16 11:34:00,64.6,42.3,29.90,WSW,248,9.0,20.0,44,0.00,,,0.01,meteohub,2013-08-16 10:34:00,
2013-08-16 11:39:00,64.8,40.5,29.90,SSW,202,17.0,20.0,41,0.00,,,0.01,meteohub,2013-08-16 10:39:00,
2013-08-16 11:44:00,64.8,41.2,29.87,West,270,8.0,19.0,42,0.00,,,0.01,meteohub,2013-08-16 10:44:00,
2013-08-16 11:49:00,64.2,39.4,29.87,WSW,248,19.0,19.0,40,0.00,,,0.01,meteohub,2013-08-16 10:49:00,
2013-08-16 11:54:00,64.0,39.9,29.87,SSW,202,15.0,19.0,41,0.00,,,0.01,meteohub,2013-08-16 10:54:00,
2013-08-16 12:00:00,64.4,40.3,29.87,WSW,248,11.0,19.0,41,0.00,,,0.01,meteohub,2013-08-16 11:00:00,
2013-08-16 12:05:00,65.1,41.5,29.87,WSW,248,8.0,19.0,42,0.00,,,0.01,meteohub,2013-08-16 11:05:00,
2013-08-16 12:10:00,65.5,40.6,29.87,WSW,248,17.0,17.0,40,0.00,,,0.01,meteohub,2013-08-16 11:10:00,
2013-08-16 12:15:00,65.3,39.0,29.87,SW,225,10.0,17.0,38,0.00,,,0.01,meteohub,2013-08-16 11:15:00,
2013-08-16 12:20:00,65.1,39.6,29.87,SW,225,13.0,18.0,39,0.00,,,0.01,meteohub,2013-08-16 11:20:00,
2013-08-16 12:25:00,65.5,41.2,29.87,WSW,248,15.0,18.0,41,0.00,,,0.01,meteohub,2013-08-16 11:25:00,
2013-08-16 12:30:00,65.8,40.3,29.87,SW,225,5.0,17.0,39,0.00,,,0.01,meteohub,2013-08-16 11:30:00,
2013-08-16 12:35:00,65.5,38.5,29.87,WSW,248,6.0,15.0,37,0.00,,,0.01,meteohub,2013-08-16 11:35:00,
2013-08-16 12:40:00,65.7,39.4,29.87,WSW,248,12.0,15.0,38,0.00,,,0.01,meteohub,2013-08-16 11:40:00,
2013-08-16 12:45:00,65.1,38.8,29.87,West,270,11.0,13.0,38,0.00,,,0.01,meteohub,2013-08-16 11:45:00,
2013-08-16 12:50:00,65.3,39.7,29.87,WSW,248,15.0,15.0,39,0.00,,,0.01,meteohub,2013-08-16 11:50:00,
2013-08-16 12:55:00,64.9,38.1,29.87,WSW,248,13.0,18.0,37,0.00,,,0.01,meteohub,2013-08-16 11:55:00,
2013-08-16 13:00:00,64.8,37.9,29.87,WSW,248,16.0,18.0,37,0.00,,,0.01,meteohub,2013-08-16 12:00:00,
2013-08-16 13:05:00,64.6,37.8,29.87,SW,225,6.0,18.0,37,0.00,,,0.01,meteohub,2013-08-16 12:05:00,
2013-08-16 13:10:00,64.6,38.5,29.87,WSW,248,5.0,16.0,38,0.00,,,0.01,meteohub,2013-08-16 12:10:00,
2013-08-16 13:15:00,64.4,37.6,29.87,SW,225,10.0,15.0,37,0.00,,,0.01,meteohub,2013-08-16 12:15:00,
2013-08-16 13:20:00,64.4,38.3,29.87,WSW,248,10.0,15.0,38,0.00,,,0.01,meteohub,2013-08-16 12:20:00,
2013-08-16 13:25:00,65.5,39.9,29.87,West,270,8.0,17.0,39,0.00,,,0.01,meteohub,2013-08-16 12:25:00,
2013-08-16 13:30:00,64.9,38.1,29.87,WSW,248,11.0,17.0,37,0.00,,,0.01,meteohub,2013-08-16 12:30:00,
2013-08-16 13:35:00,64.8,37.9,29.87,SW,225,8.0,17.0,37,0.00,,,0.01,meteohub,2013-08-16 12:35:00,
2013-08-16 13:41:00,64.8,37.9,29.87,SW,225,11.0,18.0,37,0.00,,,0.01,meteohub,2013-08-16 12:41:00,
2013-08-16 13:46:00,64.6,37.8,29.87,WSW,248,11.0,18.0,37,0.00,,,0.01,meteohub,2013-08-16 12:46:00,
2013-08-16 13:51:00,64.6,39.0,29.87,WSW,248,13.0,18.0,39,0.00,,,0.01,meteohub,2013-08-16 12:51:00,
2013-08-16 13:56:00,64.6,37.8,29.87,WSW,248,11.0,16.0,37,0.00,,,0.01,meteohub,2013-08-16 12:56:00,
2013-08-16 14:01:00,64.8,37.9,29.90,SW,225,11.0,20.0,37,0.00,,,0.01,meteohub,2013-08-16 13:01:00,
2013-08-16 14:06:00,64.8,38.7,29.90,WSW,248,10.0,20.0,38,0.00,,,0.01,meteohub,2013-08-16 13:06:00,
2013-08-16 14:11:00,64.6,37.8,29.90,SSW,202,15.0,20.0,37,0.00,,,0.01,meteohub,2013-08-16 13:11:00,
2013-08-16 14:16:00,64.4,38.3,29.90,WSW,248,13.0,16.0,38,0.00,,,0.01,meteohub,2013-08-16 13:16:00,
2013-08-16 14:21:00,64.0,38.7,29.90,WSW,248,8.0,16.0,39,0.00,,,0.01,meteohub,2013-08-16 13:21:00,
2013-08-16 14:26:00,63.9,38.5,29.90,WSW,248,10.0,16.0,39,0.00,,,0.01,meteohub,2013-08-16 13:26:00,
2013-08-16 14:31:00,63.9,38.5,29.90,West,270,6.0,16.0,39,0.00,,,0.01,meteohub,2013-08-16 13:31:00,
2013-08-16 14:36:00,63.7,38.3,29.90,SW,225,11.0,16.0,39,0.00,,,0.01,meteohub,2013-08-16 13:36:00,
2013-08-16 14:41:00,63.7,37.6,29.90,WNW,292,8.0,16.0,38,0.00,,,0.01,meteohub,2013-08-16 13:41:00,
2013-08-16 14:46:00,63.5,38.1,29.90,SW,225,8.0,17.0,39,0.00,,,0.01,meteohub,2013-08-16 13:46:00,
2013-08-16 14:51:00,63.5,38.8,29.90,West,270,6.0,18.0,40,0.00,,,0.01,meteohub,2013-08-16 13:51:00,
2013-08-16 14:56:00,63.5,40.1,29.90,West,270,9.0,18.0,42,0.00,,,0.01,meteohub,2013-08-16 13:56:00,
2013-08-16 15:02:00,63.7,40.8,29.90,WSW,248,10.0,18.0,43,0.00,,,0.01,meteohub,2013-08-16 14:02:00,
2013-08-16 15:07:00,64.0,41.7,29.90,WSW,248,7.0,16.0,44,0.00,,,0.01,meteohub,2013-08-16 14:07:00,
2013-08-16 15:12:00,64.8,41.7,29.90,WSW,248,13.0,15.0,43,0.00,,,0.01,meteohub,2013-08-16 14:12:00,
2013-08-16 15:17:00,65.5,39.9,29.90,WSW,248,11.0,17.0,39,0.00,,,0.01,meteohub,2013-08-16 14:17:00,
2013-08-16 15:22:00,65.8,38.8,29.90,SW,225,6.0,17.0,37,0.00,,,0.01,meteohub,2013-08-16 14:22:00,
2013-08-16 15:27:00,65.8,38.8,29.90,WSW,248,13.0,17.0,37,0.00,,,0.01,meteohub,2013-08-16 14:27:00,
2013-08-16 15:32:00,65.3,37.8,29.90,SSW,202,9.0,19.0,36,0.00,,,0.01,meteohub,2013-08-16 14:32:00,
2013-08-16 15:37:00,64.9,38.1,29.90,WSW,248,13.0,19.0,37,0.00,,,0.01,meteohub,2013-08-16 14:37:00,
2013-08-16 15:42:00,64.8,38.7,29.90,WSW,248,14.0,19.0,38,0.00,,,0.01,meteohub,2013-08-16 14:42:00,
2013-08-16 15:47:00,64.9,38.8,29.93,WSW,248,13.0,17.0,38,0.00,,,0.01,meteohub,2013-08-16 14:47:00,
2013-08-16 15:52:00,64.8,39.2,29.93,SSW,202,7.0,15.0,39,0.00,,,0.01,meteohub,2013-08-16 14:52:00,
2013-08-16 15:57:00,64.8,39.2,29.93,SW,225,13.0,15.0,39,0.00,,,0.01,meteohub,2013-08-16 14:57:00,
2013-08-16 16:02:00,64.6,38.5,29.90,WSW,248,9.0,16.0,38,0.00,,,0.01,meteohub,2013-08-16 15:02:00,
2013-08-16 16:07:00,64.6,38.5,29.90,WSW,248,5.0,16.0,38,0.00,,,0.01,meteohub,2013-08-16 15:07:00,
2013-08-16 16:12:00,64.8,38.7,29.90,South,180,8.0,16.0,38,0.00,,,0.01,meteohub,2013-08-16 15:12:00,
2013-08-16 16:17:00,64.6,37.8,29.90,WSW,248,14.0,16.0,37,0.00,,,0.01,meteohub,2013-08-16 15:17:00,
2013-08-16 16:22:00,64.2,37.4,29.90,SW,225,14.0,16.0,37,0.00,,,0.01,meteohub,2013-08-16 15:22:00,
2013-08-16 16:27:00,64.2,38.1,29.90,West,270,10.0,17.0,38,0.00,,,0.01,meteohub,2013-08-16 15:27:00,
2013-08-16 16:32:00,64.0,38.7,29.90,WSW,248,12.0,17.0,39,0.00,,,0.01,meteohub,2013-08-16 15:32:00,
2013-08-16 16:38:00,63.7,39.6,29.90,SSW,202,12.0,17.0,41,0.00,,,0.01,meteohub,2013-08-16 15:38:00,
2013-08-16 16:43:00,62.4,40.3,29.93,WNW,292,13.0,27.0,44,0.00,,,0.01,meteohub,2013-08-16 15:43:00,
2013-08-16 16:48:00,60.8,40.5,29.93,West,270,15.0,27.0,47,0.00,,,0.01,meteohub,2013-08-16 15:48:00,
2013-08-16 16:53:00,60.3,43.5,29.93,West,270,6.0,27.0,54,0.00,,,0.01,meteohub,2013-08-16 15:53:00,
2013-08-16 16:58:00,59.7,46.2,29.93,WSW,248,9.0,23.0,61,0.00,,,0.01,meteohub,2013-08-16 15:58:00,
2013-08-16 17:03:00,59.2,49.5,29.93,WSW,248,10.0,20.0,70,0.00,,,0.01,meteohub,2013-08-16 16:03:00,
2013-08-16 17:08:00,59.0,50.4,29.93,WSW,248,8.0,15.0,73,0.00,,,0.01,meteohub,2013-08-16 16:08:00,
2013-08-16 17:13:00,59.2,51.6,29.93,West,270,8.0,15.0,76,0.00,,,0.01,meteohub,2013-08-16 16:13:00,
2013-08-16 17:18:00,59.0,51.8,29.93,West,270,7.0,14.0,77,0.00,,,0.01,meteohub,2013-08-16 16:18:00,
2013-08-16 17:23:00,59.2,52.0,29.93,WSW,248,6.0,13.0,77,0.00,,,0.01,meteohub,2013-08-16 16:23:00,
2013-08-16 17:28:00,59.4,52.2,29.93,WSW,248,4.0,13.0,77,0.00,,,0.01,meteohub,2013-08-16 16:28:00,
2013-08-16 17:33:00,60.1,51.8,29.93,WSW,248,6.0,10.0,74,0.00,,,0.01,meteohub,2013-08-16 16:33:00,
2013-08-16 17:38:00,60.4,51.8,29.93,SW,225,4.0,10.0,73,0.00,,,0.01,meteohub,2013-08-16 16:38:00,
2013-08-16 17:43:00,61.3,51.4,29.93,West,270,13.0,13.0,70,0.00,,,0.01,meteohub,2013-08-16 16:43:00,
2013-08-16 17:48:00,62.4,49.6,29.93,West,270,10.0,13.0,63,0.00,,,0.01,meteohub,2013-08-16 16:48:00,
2013-08-16 17:53:00,62.4,47.5,29.93,WSW,248,10.0,13.0,58,0.00,,,0.01,meteohub,2013-08-16 16:53:00,
2013-08-16 17:59:00,62.4,46.6,29.93,West,270,7.0,15.0,56,0.00,,,0.01,meteohub,2013-08-16 16:59:00,
2013-08-16 18:04:00,62.2,45.9,29.93,WSW,248,12.0,15.0,55,0.00,,,0.01,meteohub,2013-08-16 17:04:00,
2013-08-16 18:09:00,62.1,45.7,29.93,WSW,248,5.0,15.0,55,0.00,,,0.01,meteohub,2013-08-16 17:09:00,
2013-08-16 18:14:00,61.9,45.5,29.93,West,270,9.0,13.0,55,0.00,,,0.01,meteohub,2013-08-16 17:14:00,
2013-08-16 18:19:00,61.7,46.4,29.93,WSW,248,10.0,12.0,57,0.00,,,0.01,meteohub,2013-08-16 17:19:00,
2013-08-16 18:24:00,61.5,46.6,29.93,SW,225,7.0,11.0,58,0.00,,,0.01,meteohub,2013-08-16 17:24:00,
2013-08-16 18:29:00,61.3,46.0,29.93,WSW,248,12.0,13.0,57,0.00,,,0.01,meteohub,2013-08-16 17:29:00,
2013-08-16 18:34:00,61.3,46.0,29.93,WSW,248,11.0,13.0,57,0.00,,,0.01,meteohub,2013-08-16 17:34:00,
2013-08-16 18:39:00,61.3,46.4,29.93,WSW,248,8.0,13.0,58,0.00,,,0.01,meteohub,2013-08-16 17:39:00,
2013-08-16 18:44:00,61.2,46.8,29.93,WSW,248,9.0,13.0,59,0.00,,,0.01,meteohub,2013-08-16 17:44:00,
2013-08-16 18:49:00,61.2,47.1,29.93,WSW,248,8.0,12.0,60,0.00,,,0.01,meteohub,2013-08-16 17:49:00,
2013-08-16 18:54:00,61.0,47.5,29.93,WSW,248,6.0,12.0,61,0.00,,,0.01,meteohub,2013-08-16 17:54:00,
2013-08-16 18:59:00,61.0,47.5,29.93,West,270,13.0,13.0,61,0.00,,,0.01,meteohub,2013-08-16 17:59:00,
2013-08-16 19:04:00,61.0,46.9,29.93,SSW,202,5.0,15.0,60,0.00,,,0.01,meteohub,2013-08-16 18:04:00,
2013-08-16 19:09:00,61.2,47.1,29.93,SW,225,9.0,15.0,60,0.00,,,0.01,meteohub,2013-08-16 18:09:00,
2013-08-16 19:15:00,61.7,47.7,29.93,SW,225,8.0,15.0,60,0.00,,,0.01,meteohub,2013-08-16 18:15:00,
2013-08-16 19:20:00,61.7,46.8,29.93,West,270,9.0,13.0,58,0.00,,,0.01,meteohub,2013-08-16 18:20:00,
2013-08-16 19:25:00,61.2,45.0,29.93,WSW,248,11.0,13.0,55,0.00,,,0.01,meteohub,2013-08-16 18:25:00,
2013-08-16 19:30:00,60.8,44.1,29.93,SW,225,5.0,13.0,54,0.00,,,0.01,meteohub,2013-08-16 18:30:00,
2013-08-16 19:35:00,60.6,44.4,29.93,SW,225,6.0,13.0,55,0.00,,,0.01,meteohub,2013-08-16 18:35:00,
2013-08-16 19:40:00,60.6,44.4,29.93,SW,225,10.0,11.0,55,0.00,,,0.01,meteohub,2013-08-16 18:40:00,
2013-08-16 19:45:00,60.6,43.9,29.93,SW,225,4.0,13.0,54,0.00,,,0.01,meteohub,2013-08-16 18:45:00,
2013-08-16 19:50:00,60.6,43.9,29.93,WSW,248,6.0,13.0,54,0.00,,,0.01,meteohub,2013-08-16 18:50:00,
2013-08-16 19:55:00,60.8,43.5,29.93,WSW,248,9.0,13.0,53,0.00,,,0.01,meteohub,2013-08-16 18:55:00,
2013-08-16 20:01:00,60.8,42.6,29.93,West,270,4.0,11.0,51,0.00,,,0.01,meteohub,2013-08-16 19:01:00,
2013-08-16 20:06:00,60.8,42.6,29.93,WSW,248,6.0,11.0,51,0.00,,,0.01,meteohub,2013-08-16 19:06:00,
2013-08-16 20:11:00,60.4,41.7,29.93,WSW,248,4.0,11.0,50,0.00,,,0.01,meteohub,2013-08-16 19:11:00,
2013-08-16 20:16:00,60.4,41.7,29.93,West,270,7.0,9.0,50,0.00,,,0.01,meteohub,2013-08-16 19:16:00,
2013-08-16 20:21:00,60.4,42.3,29.93,WSW,248,7.0,11.0,51,0.00,,,0.01,meteohub,2013-08-16 19:21:00,
2013-08-16 20:26:00,60.3,42.1,29.93,West,270,4.0,12.0,51,0.00,,,0.01,meteohub,2013-08-16 19:26:00,
2013-08-16 20:31:00,60.1,42.4,29.93,WSW,248,6.0,12.0,52,0.00,,,0.01,meteohub,2013-08-16 19:31:00,
2013-08-16 20:36:00,60.1,42.4,29.93,West,270,6.0,12.0,52,0.00,,,0.01,meteohub,2013-08-16 19:36:00,
2013-08-16 20:41:00,59.9,42.3,29.93,WSW,248,4.0,9.0,52,0.00,,,0.01,meteohub,2013-08-16 19:41:00,
2013-08-16 20:46:00,59.7,42.6,29.93,WSW,248,4.0,9.0,53,0.00,,,0.01,meteohub,2013-08-16 19:46:00,
2013-08-16 20:51:00,59.7,43.0,29.93,WSW,248,6.0,8.0,54,0.00,,,0.01,meteohub,2013-08-16 19:51:00,
2013-08-16 20:56:00,59.5,43.3,29.93,WSW,248,4.0,8.0,55,0.00,,,0.01,meteohub,2013-08-16 19:56:00,
2013-08-16 21:01:00,59.4,43.7,29.93,WSW,248,6.0,6.0,56,0.00,,,0.01,meteohub,2013-08-16 20:01:00,
2013-08-16 21:07:00,59.2,44.4,29.93,West,270,6.0,7.0,58,0.00,,,0.01,meteohub,2013-08-16 20:07:00,
2013-08-16 21:12:00,59.0,44.2,29.93,WSW,248,6.0,8.0,58,0.00,,,0.01,meteohub,2013-08-16 20:12:00,
2013-08-16 21:17:00,58.6,44.4,29.93,WSW,248,5.0,8.0,59,0.00,,,0.01,meteohub,2013-08-16 20:17:00,
2013-08-16 21:22:00,58.5,44.2,29.93,SSW,202,3.0,8.0,59,0.00,,,0.01,meteohub,2013-08-16 20:22:00,
2013-08-16 21:27:00,58.3,44.4,29.93,SSW,202,3.0,6.0,60,0.00,,,0.01,meteohub,2013-08-16 20:27:00,
2013-08-16 21:32:00,57.9,44.1,29.93,SSW,202,2.0,6.0,60,0.00,,,0.01,meteohub,2013-08-16 20:32:00,
2013-08-16 21:37:00,57.6,43.9,29.93,WSW,248,3.0,5.0,60,0.00,,,0.01,meteohub,2013-08-16 20:37:00,
2013-08-16 21:42:00,57.2,43.9,29.93,WSW,248,3.0,4.0,61,0.00,,,0.01,meteohub,2013-08-16 20:42:00,
2013-08-16 21:47:00,56.8,43.5,29.93,SW,225,4.0,4.0,61,0.00,,,0.01,meteohub,2013-08-16 20:47:00,
2013-08-16 21:52:00,56.7,43.9,29.93,WSW,248,2.0,4.0,62,0.00,,,0.01,meteohub,2013-08-16 20:52:00,
2013-08-16 21:57:00,56.3,43.5,29.93,WSW,248,0.0,4.0,62,0.00,,,0.01,meteohub,2013-08-16 20:57:00,
2013-08-16 22:02:00,56.1,43.3,29.93,West,270,1.0,4.0,62,0.00,,,0.01,meteohub,2013-08-16 21:02:00,
2013-08-16 22:07:00,55.6,42.8,29.93,West,270,3.0,3.0,62,0.00,,,0.01,meteohub,2013-08-16 21:07:00,
2013-08-16 22:13:00,55.0,42.6,29.93,West,270,2.0,3.0,63,0.00,,,0.01,meteohub,2013-08-16 21:13:00,
2013-08-16 22:18:00,54.5,42.6,29.93,WNW,292,3.0,3.0,64,0.00,,,0.01,meteohub,2013-08-16 21:18:00,
2013-08-16 22:23:00,54.5,43.0,29.93,WNW,292,3.0,3.0,65,0.00,,,0.01,meteohub,2013-08-16 21:23:00,
2013-08-16 22:28:00,54.1,43.5,29.93,West,270,0.0,4.0,67,0.00,,,0.01,meteohub,2013-08-16 21:28:00,
2013-08-16 22:33:00,53.8,43.5,29.93,West,270,0.0,4.0,68,0.00,,,0.01,meteohub,2013-08-16 21:33:00,
2013-08-16 22:38:00,54.1,44.2,29.93,WSW,248,2.0,4.0,69,0.00,,,0.01,meteohub,2013-08-16 21:38:00,
2013-08-16 22:43:00,54.1,45.0,29.93,NW,315,2.0,6.0,71,0.00,,,0.01,meteohub,2013-08-16 21:43:00,
2013-08-16 22:48:00,54.1,45.3,29.93,West,270,3.0,6.0,72,0.00,,,0.01,meteohub,2013-08-16 21:48:00,
2013-08-16 22:53:00,54.3,45.5,29.93,WSW,248,8.0,8.0,72,0.00,,,0.01,meteohub,2013-08-16 21:53:00,
2013-08-16 22:58:00,55.0,47.3,29.93,SSW,202,2.0,8.0,75,0.00,,,0.01,meteohub,2013-08-16 21:58:00,
2013-08-16 23:03:00,55.2,48.6,29.93,SSW,202,3.0,8.0,78,0.00,,,0.01,meteohub,2013-08-16 22:03:00,
2013-08-16 23:08:00,55.2,48.6,29.93,South,180,3.0,8.0,78,0.00,,,0.01,meteohub,2013-08-16 22:08:00,
2013-08-16 23:13:00,55.2,48.6,29.90,South,180,1.0,8.0,78,0.00,,,0.01,meteohub,2013-08-16 22:13:00,
2013-08-16 23:19:00,55.0,48.0,29.90,SSW,202,0.0,7.0,77,0.00,,,0.01,meteohub,2013-08-16 22:19:00,
2013-08-16 23:24:00,54.7,47.7,29.90,SSW,202,2.0,6.0,77,0.00,,,0.01,meteohub,2013-08-16 22:24:00,
2013-08-16 23:29:00,54.5,47.1,29.93,WSW,248,0.0,4.0,76,0.00,,,0.01,meteohub,2013-08-16 22:29:00,
2013-08-16 23:34:00,54.3,46.9,29.93,WSW,248,3.0,3.0,76,0.00,,,0.01,meteohub,2013-08-16 22:34:00,
2013-08-16 23:39:00,54.5,47.1,29.93,SSE,158,3.0,6.0,76,0.00,,,0.01,meteohub,2013-08-16 22:39:00,
2013-08-16 23:44:00,54.3,46.9,29.90,South,180,2.0,6.0,76,0.00,,,0.01,meteohub,2013-08-16 22:44:00,
2013-08-16 23:49:00,54.1,47.1,29.90,SW,225,2.0,6.0,77,0.00,,,0.01,meteohub,2013-08-16 22:49:00,
2013-08-16 23:54:00,54.1,46.8,29.90,SSW,202,3.0,5.0,76,0.00,,,0.01,meteohub,2013-08-16 22:54:00,
2013-08-16 23:59:00,54.0,46.6,29.90,South,180,4.0,5.0,76,0.00,,,0.01,meteohub,2013-08-16 22:59:00,